STARLETTE 1 07646U 75010A 25260.90857535 -.00000132 00000+0 70522-5 0 9990 2 07646 49.8238 99.3254 0205720 243.5652 114.4001 13.82345023556877 LAGEOS 1 1 08820U 76039A 25260.75745840 .00000038 00000+0 00000+0 0 9997 2 08820 109.8448 86.0355 0044661 0.5868 347.4305 6.38664849895731 AJISAI (EGS) 1 16908U 86061A 25260.89552493 -.00000079 00000+0 13135-3 0 9997 2 16908 50.0077 264.6870 0011296 207.3303 225.2148 12.44513369446483 COSMOS 1989 (ETALON 1) 1 19751U 89001C 25260.63997541 .00000045 00000+0 00000+0 0 9997 2 19751 64.7869 81.5269 0023415 216.8014 126.5707 2.13156057285556 COSMOS 2024 (ETALON 2) 1 20026U 89039C 25259.80291160 -.00000047 00000+0 00000+0 0 9999 2 20026 65.0994 319.9467 0020371 214.5861 316.8065 2.13204473282674 LAGEOS 2 1 22195U 92070B 25260.83452377 -.00000009 00000+0 00000+0 0 9999 2 22195 52.6519 78.7552 0137761 68.4365 290.4819 6.47293897777784 STELLA 1 22824U 93061B 25260.95979257 -.00000032 00000+0 55754-5 0 9991 2 22824 98.8147 318.6703 0005572 316.3408 169.3686 14.27459207665938 LARETS 1 27944U 03042F 25260.92893980 .00000070 00000+0 23001-4 0 9994 2 27944 98.3819 52.9668 0012651 160.5108 199.6580 14.63784288173536 LARES 1 38077U 12006A 25260.86921298 -.00000041 00000+0 -13224-4 0 9996 2 38077 69.4924 37.3873 0011216 292.6775 67.3065 12.54931957622903 LARES-2 1 53105U 22080A 25260.67184435 -.00000015 00000+0 00000+0 0 9994 2 53105 70.1681 38.7674 0005085 33.8670 326.2203 6.38965088 74258